Location: Alulod
(14.2076°N, 120.8898°E)
Time: 14:34:15
(UTC+00:00)

USA 238 DEB - Pass Details

Date: 19 March 2026
Orbit: 883 x 1328 km, 63.4° (Epoch: 10 January)

Event Time Altitude Azimuth Distance (km) Brightness Sun altitude
Rises 10:54:58 0° 240° (WSW) 3,473 7.4 -12.4°
Reaches altitude 10° 10:58:14 10° 259° (WSW) 2,544 7.0 -13.2°
Maximum altitude 11:02:08 18° 301° (WNW) 2,050 6.1 -14.1°
Drops below altitude 10° 11:06:11 10° 343° (NNW) 2,633 6.0 -15.1°
Sets 11:09:40 0° 2° (N) 3,644 6.5 -16.0°
